Retour au catalogue

STARLINK-34211

ActifCommunicationsVLEO
NORAD 64255·PAYLOAD·🇺🇸 United States

Lancé Jun 3, 2025 depuis Cape Canaveral Space Force Station

Loading…

Prochains Passages (prochaines 24 heures)

TLE

FraisSource: CelesTrak SupGP

Époque: Sep 14, 2026, 20:53 UTC

1 64255C 25119Y   26257.87062500 -.00025994  00000+0 -94151-3 0  2570
2 64255  43.0021 319.0421 0001583 267.5271 235.7854 15.27590458    12

Suivez STARLINK-34211 en temps réel avec AllMySat

Download on the App Store